This is the latest recevied weather packets stored in our database for station/object KY4LEX. If no packets are shown the sender has not sent any weather packets the latest 10 day(s).
| Time | Temp. | Humidity | Pressure | Rain* | Wind** | Luminosity | Snow |
|---|---|---|---|---|---|---|---|
| 1778156272 | 9.44° C | 65% | 1021.2 hPa | 0 mm | - | 36 W/m² | - |
| 1778155968 | 9.44° C | 65% | 1020.9 hPa | 0 mm | - | 43 W/m² | - |
| 1778155664 | 8.89° C | 68% | 1021.2 hPa | 0 mm | - | 38 W/m² | - |
| 1778155361 | 8.89° C | 68% | 1020.9 hPa | 0 mm | - | 33 W/m² | - |
| 1778155057 | 8.89° C | 69% | 1020.9 hPa | 0 mm | - | 31 W/m² | - |
| 1778154753 | 8.89° C | 70% | 1020.9 hPa | 0 mm | - | 32 W/m² | - |
| 1778154449 | 8.33° C | 70% | 1020.8 hPa | 0 mm | - | 30 W/m² | - |
| 1778154147 | 8.33° C | 73% | 1020.8 hPa | 0 mm | - | 27 W/m² | - |
| 1778153844 | 8.33° C | 74% | 1020.6 hPa | 0 mm | - | 25 W/m² | - |
| 1778153541 | 8.33° C | 76% | 1020.8 hPa | 0 mm | - | 24 W/m² | - |
| 1778153238 | 7.78° C | 79% | 1020.8 hPa | 0 mm | - | 22 W/m² | - |
| 1778152935 | 7.22° C | 85% | 1020.5 hPa | 0 mm | - | 20 W/m² | - |
| 1778152633 | 6.67° C | 90% | 1020.6 hPa | 0 mm | - | 18 W/m² | - |
| 1778152330 | 6.67° C | 93% | 1020.5 hPa | 0 mm | - | 16 W/m² | - |
| 1778152025 | 6.11° C | 94% | 1020.5 hPa | 0 mm | - | 14 W/m² | - |
| 1778151722 | 6.11° C | 95% | 1020.2 hPa | 0 mm | - | 12 W/m² | - |
| 1778151419 | 6.11° C | 95% | 1020.1 hPa | 0 mm | - | 10 W/m² | - |
| 1778151115 | 6.11° C | 95% | 1020 hPa | 0 mm | - | 7 W/m² | - |
| 1778150813 | 5.56° C | 95% | 1020.1 hPa | 0 mm | - | 6 W/m² | - |
| 1778150509 | 6.11° C | 95% | 1020 hPa | 0 mm | - | 4 W/m² | - |
| 1778150205 | 6.11° C | 95% | 1020.2 hPa | 0 mm | - | 2 W/m² | - |
| 1778149902 | 5.56° C | 95% | 1020 hPa | 0 mm | - | 1 W/m² | - |
| 1778149598 | 5.56° C | 95% | 1019.8 hPa | 0 mm | - | 1 W/m² | - |
| 1778149294 | 6.11° C | 95% | 1020.1 hPa | 0 mm | - | 0 W/m² | - |
| 1778148991 | 6.11° C | 94% | 1019.9 hPa | 0 mm | - | 0 W/m² | - |
* Rain latest hour (hover to see other rain measurements)
** Current wind speed in m/s (hover to see current wind gust speed)